Mobridge, SD

5:25 PM CDT on May 29, 2017 (GMT -0500)
Mobridge Municipal

Weather History for KMBG - July, 2013

Change the Weather History Date:

Friday, July 26, 2013

  Actual Average Record
Temperature  
Mean Temperature 62 °F 74 °F  
Max Temperature 72 °F 87 °F 110 °F (1935)
Min Temperature 52 °F 60 °F 46 °F (1918)
Degree Days  
Heating Degree Days 3 0  
Month to date heating degree days 3 5  
Since 1 June heating degree days 71 80  
Since 1 July heating degree days 3 5  
Cooling Degree Days 0 9  
Month to date cooling degree days 210 207  
Year to date cooling degree days 336 322  
Since 1 June cooling degree days 321 306  
Growing Degree Days 12 (Base 50)    
Moisture  
Dew Point 46 °F    
Average Humidity 62    
Maximum Humidity 89    
Minimum Humidity 35    
Precipitation  
Precipitation 0.00 in 0.09 in 1.11 in (1942)
Month to date precipitation 2.24 2.28  
Year to date precipitation 11.24 11.46  
Sea Level Pressure  
Sea Level Pressure 30.20 in    
Wind  
Wind Speed 10 mph (North)    
Max Wind Speed 16 mph    
Max Gust Speed 24 mph    
Visibility 10 miles    
Events      
T = Trace of Precipitation, MM = Missing Value Source: NWS Daily Summary

Daily Weather History Graph

Daily Weather History Graph

Search for Another Location

Airport or City:

Trip Planner

Search our weather history database for the weather conditions in past years. The results will help you decide how hot, cold, wet, or windy it might be!

Date:

Astronomy

Jul. 26, 2013 Rise Set
Actual Time 6:18 AM CDT 9:16 PM CDT
Civil Twilight 5:43 AM CDT 9:51 PM CDT
Nautical Twilight 4:59 AM CDT 10:36 PM CDT
Astronomical Twilight 4:05 AM CDT 11:29 PM CDT
Moon 11:12 PM CDT (7/26) 11:14 AM CDT (7/26)
Length of Visible Light 16h 07m
Length of Day
14h 57m
Waning Gibbous, 80% of the Moon is Illuminated
Jul 26
Waning Gibbous
Jul 29
Last Quarter
Aug 6
New
Aug 14
First Quarter
Aug 20
Full

Hourly Weather History & Observations

Time (CDT) Temp. Dew Point Humidity Pressure Visibility Wind Dir Wind Speed Gust Speed Precip Events Conditions
12:52 AM 57.0 °F 46.9 °F 69% 30.11 in 10.0 mi NNW 11.5 mph - N/A   Clear
1:52 AM 55.9 °F 46.9 °F 72% 30.12 in 10.0 mi NNW 10.4 mph - N/A   Clear
2:52 AM 54.0 °F 48.0 °F 80% 30.13 in 10.0 mi NNW 8.1 mph - N/A   Clear
3:52 AM 53.1 °F 48.9 °F 86% 30.14 in 10.0 mi North 10.4 mph - N/A   Clear
4:52 AM 54.0 °F 50.0 °F 86% 30.16 in 10.0 mi North 15.0 mph 19.6 mph N/A   Clear
5:52 AM 53.1 °F 50.0 °F 89% 30.18 in 10.0 mi North 10.4 mph - N/A   Clear
6:52 AM 53.1 °F 50.0 °F 89% 30.19 in 10.0 mi North 12.7 mph 18.4 mph N/A   Clear
7:24 AM 55.4 °F 48.2 °F 77% 30.21 in 10.0 mi North 13.8 mph - N/A   Mostly Cloudy
7:33 AM 55.4 °F 48.2 °F 77% 30.21 in 10.0 mi North 11.5 mph 21.9 mph N/A   Scattered Clouds
7:52 AM 55.9 °F 48.0 °F 75% 30.21 in 10.0 mi North 15.0 mph 20.7 mph N/A   Clear
8:52 AM 59.0 °F 50.0 °F 72% 30.23 in 10.0 mi North 13.8 mph - N/A   Clear
9:52 AM 61.0 °F 48.9 °F 64% 30.26 in 10.0 mi North 10.4 mph 19.6 mph N/A   Scattered Clouds
10:17 AM 60.8 °F 48.2 °F 63% 30.27 in 10.0 mi North 12.7 mph - N/A   Mostly Cloudy
10:37 AM 62.6 °F 48.2 °F 59% 30.27 in 10.0 mi North 11.5 mph - N/A   Scattered Clouds
10:52 AM 63.0 °F 48.9 °F 60% 30.26 in 10.0 mi North 15.0 mph 19.6 mph N/A   Partly Cloudy
11:52 AM 64.9 °F 45.0 °F 48% 30.25 in 10.0 mi North 11.5 mph 18.4 mph N/A   Scattered Clouds
12:52 PM 64.9 °F 44.1 °F 47% 30.26 in 10.0 mi North 9.2 mph 18.4 mph N/A   Overcast
1:52 PM 68.0 °F 44.1 °F 42% 30.23 in 10.0 mi Variable 6.9 mph - N/A   Mostly Cloudy
2:52 PM 69.1 °F 42.1 °F 38% 30.21 in 10.0 mi NE 6.9 mph 20.7 mph N/A   Scattered Clouds
3:52 PM 72.0 °F 43.0 °F 35% 30.19 in 10.0 mi NNW 9.2 mph - N/A   Partly Cloudy
4:52 PM 70.0 °F 41.0 °F 35% 30.19 in 10.0 mi North 8.1 mph 16.1 mph N/A   Partly Cloudy
5:52 PM 71.1 °F 42.1 °F 35% 30.19 in 10.0 mi North 6.9 mph 18.4 mph N/A   Scattered Clouds
6:52 PM 70.0 °F 41.0 °F 35% 30.18 in 10.0 mi NNE 11.5 mph - N/A   Clear
7:52 PM 68.0 °F 41.0 °F 37% 30.17 in 10.0 mi NNE 10.4 mph - N/A   Clear
8:52 PM 63.0 °F 42.1 °F 46% 30.17 in 10.0 mi NE 9.2 mph - N/A   Clear
9:52 PM 57.9 °F 43.0 °F 58% 30.19 in 10.0 mi NE 9.2 mph - N/A   Clear
10:52 PM 57.0 °F 43.0 °F 59% 30.19 in 10.0 mi NE 9.2 mph - N/A   Clear
11:52 PM 55.9 °F 42.1 °F 60% 30.21 in 10.0 mi NE 10.4 mph - N/A   Clear